Location: Blanot
(47.1713°N, 4.2340°E)
Time: 10:23:21
(UTC+00:00)

H-2A R/B - Pass Details

Date: 14 July 2020
Orbit: 577 x 656 km, 98.5° (Epoch: 05 August)

Event Time Altitude Azimuth Distance (km) Brightness Sun altitude
Rises 02:04:26 0° 132° (SE) 2,924 5.4 -14.7°
Reaches altitude 10° 02:06:56 10° 120° (ESE) 2,007 4.7 -14.5°
Maximum altitude 02:10:30 25° 65° (ENE) 1,250 4.3 -14.2°
Drops below altitude 10° 02:14:02 10° 9° (N) 1,979 5.7 -13.8°
Sets 02:16:28 0° 357° (N) 2,874 6.4 -13.6°
